| time (UTC) | temp F | wind direction | speed MPH | gust MPH | rain 1hr in | rain 24hr in | rain mn in | humidity % | barometer mb |
| 20260506071845 | 59 | 70 | 0.0 | 0.0 | 0.00 | 0.00 | 0.00 | 84 | 1017.5 |
| 20260506071350 | 59 | 70 | 0.0 | 0.0 | 0.00 | 0.00 | 0.00 | 83 | 1017.4 |
| 20260506070834 | 60 | 71 | 0.0 | 0.0 | 0.00 | 0.00 | 0.00 | 82 | 1017.4 |
| 20260506070339 | 60 | 71 | 0.0 | 0.0 | 0.00 | 0.00 | 0.00 | 82 | 1017.4 |
| 20260506062324 | 59 | 345 | 0.0 | 0.0 | 0.00 | 0.00 | 0.00 | 83 | 1017.2 |
| 20260506061813 | 59 | 346 | 0.0 | 0.0 | 0.00 | 0.00 | 0.00 | 83 | 1017.2 |
| 20260506061312 | 59 | 346 | 0.0 | 0.0 | 0.00 | 0.00 | 0.00 | 83 | 1017.1 |
| 20260506060815 | 59 | 346 | 0.0 | 0.0 | 0.00 | 0.00 | 0.00 | 83 | 1017.1 |
| 20260506060322 | 60 | 346 | 0.0 | 0.0 | 0.00 | 0.00 | 0.00 | 83 | 1017.2 |
| 20260506051338 | 60 | 345 | 0.0 | 0.0 | 0.00 | 0.00 | 0.00 | 82 | 1016.9 |
| 20260506050820 | 60 | 345 | 0.0 | 0.0 | 0.00 | 0.00 | 0.00 | 82 | 1016.9 |
| 20260506050320 | 60 | 345 | 0.0 | 0.0 | 0.00 | 0.00 | 0.00 | 82 | 1016.9 |
| 20260506044828 | 60 | 346 | 0.0 | 0.0 | 0.00 | 0.00 | 0.00 | 82 | 1016.8 |
| 20260506044335 | 60 | 346 | 0.0 | 0.0 | 0.00 | 0.00 | 0.00 | 82 | 1016.7 |
| 20260506043818 | 60 | 346 | 0.0 | 0.0 | 0.00 | 0.00 | 0.00 | 81 | 1016.7 |
| 20260506043318 | 60 | 345 | 0.0 | 0.0 | 0.00 | 0.00 | 0.00 | 82 | 1016.6 |
| 20260506042828 | 60 | 346 | 0.0 | 0.0 | 0.00 | 0.00 | 0.00 | 81 | 1016.5 |
| 20260506042328 | 60 | 346 | 0.0 | 0.0 | 0.00 | 0.00 | 0.00 | 81 | 1016.5 |
| 20260506041830 | 60 | 345 | 0.0 | 0.0 | 0.00 | 0.00 | 0.00 | 81 | 1016.4 |
| 20260506041337 | 60 | 345 | 0.0 | 0.0 | 0.00 | 0.00 | 0.00 | 81 | 1016.4 |
| 20260506040820 | 60 | 345 | 0.0 | 0.0 | 0.00 | 0.00 | 0.00 | 81 | 1016.4 |
| 20260506040320 | 60 | 345 | 0.0 | 0.0 | 0.00 | 0.00 | 0.00 | 80 | 1016.3 |
| 20260506035830 | 60 | 345 | 0.0 | 0.0 | 0.00 | 0.00 | 0.00 | 80 | 1016.3 |
| 20260506035350 | 60 | 345 | 0.0 | 0.0 | 0.00 | 0.00 | 0.00 | 80 | 1016.2 |
| 20260506034839 | 60 | 345 | 0.0 | 0.0 | 0.00 | 0.00 | 0.00 | 80 | 1016.1 |
| 20260506034345 | 60 | 345 | 0.0 | 0.0 | 0.00 | 0.00 | 0.00 | 80 | 1016.0 |
| 20260506033846 | 60 | 345 | 0.0 | 0.0 | 0.00 | 0.00 | 0.00 | 79 | 1015.9 |
| 20260506033332 | 61 | 345 | 0.0 | 0.0 | 0.00 | 0.00 | 0.00 | 79 | 1015.9 |
| 20260506032842 | 61 | 345 | 0.0 | 0.0 | 0.00 | 0.00 | 0.00 | 78 | 1015.9 |
| 20260506032340 | 61 | 304 | 0.0 | 0.0 | 0.00 | 0.00 | 0.00 | 78 | 1015.9 |
| 20260506031851 | 61 | 347 | 0.0 | 0.0 | 0.00 | 0.00 | 0.00 | 78 | 1015.9 |
| 20260506031356 | 61 | 347 | 0.0 | 0.0 | 0.00 | 0.00 | 0.00 | 78 | 1015.9 |
| 20260506030819 | 61 | 347 | 0.0 | 0.0 | 0.00 | 0.00 | 0.00 | 78 | 1015.8 |
| 20260506030318 | 61 | 347 | 0.0 | 0.0 | 0.00 | 0.00 | 0.00 | 78 | 1015.7 |
| 20260506025829 | 61 | 347 | 0.0 | 0.0 | 0.00 | 0.00 | 0.00 | 78 | 1015.6 |
| 20260506025328 | 61 | 347 | 0.0 | 0.0 | 0.00 | 0.00 | 0.00 | 77 | 1015.6 |
| 20260506024838 | 62 | 347 | 0.0 | 0.0 | 0.00 | 0.00 | 0.00 | 78 | 1015.6 |
| 20260506024325 | 62 | 347 | 0.0 | 0.0 | 0.00 | 0.00 | 0.00 | 78 | 1015.6 |
| 20260506023828 | 61 | 347 | 0.0 | 0.0 | 0.00 | 0.00 | 0.00 | 77 | 1015.5 |
| 20260506023328 | 61 | 347 | 0.0 | 0.0 | 0.00 | 0.00 | 0.00 | 77 | 1015.5 |
| 20260506022838 | 61 | 347 | 0.0 | 0.0 | 0.00 | 0.00 | 0.00 | 76 | 1015.5 |
| 20260506022319 | 62 | 327 | 0.0 | 0.0 | 0.00 | 0.00 | 0.00 | 77 | 1015.5 |
| 20260506021821 | 62 | 3 | 0.0 | 2.0 | 0.00 | 0.00 | 0.00 | 76 | 1015.6 |
| 20260506021328 | 62 | 3 | 0.0 | 2.0 | 0.00 | 0.00 | 0.00 | 76 | 1015.6 |
| 20260506020831 | 62 | 125 | 0.0 | 0.0 | 0.00 | 0.00 | 0.00 | 77 | 1015.5 |
| 20260506020311 | 62 | 139 | 0.0 | 1.0 | 0.00 | 0.00 | 0.00 | 76 | 1015.4 |
| 20260506015814 | 62 | 348 | 0.0 | 1.0 | 0.00 | 0.00 | 0.00 | 76 | 1015.5 |
| 20260506015321 | 62 | 304 | 0.0 | 3.0 | 0.00 | 0.00 | 0.00 | 76 | 1015.5 |
| 20260506014824 | 62 | 348 | 1.0 | 3.0 | 0.00 | 0.00 | 0.00 | 75 | 1015.5 |
| 20260506014331 | 63 | 340 | 0.0 | 1.0 | 0.00 | 0.00 | 0.00 | 75 | 1015.5 |
| 20260506013814 | 63 | 301 | 0.0 | 0.0 | 0.00 | 0.00 | 0.00 | 76 | 1015.5 |
| 20260506013314 | 62 | 350 | 0.0 | 0.0 | 0.00 | 0.00 | 0.00 | 76 | 1015.6 |
| 20260506012825 | 62 | 338 | 0.0 | 0.0 | 0.00 | 0.00 | 0.00 | 77 | 1015.6 |
| 20260506012324 | 62 | 340 | 0.0 | 0.0 | 0.00 | 0.00 | 0.00 | 76 | 1015.6 |
| 20260506011827 | 62 | 100 | 0.0 | 2.0 | 0.00 | 0.00 | 0.00 | 77 | 1015.6 |
| 20260506011334 | 62 | 100 | 0.0 | 4.0 | 0.00 | 0.00 | 0.00 | 77 | 1015.6 |
| 20260506010817 | 62 | 302 | 0.0 | 1.0 | 0.00 | 0.00 | 0.00 | 76 | 1015.6 |
| 20260506010317 | 63 | 335 | 0.0 | 3.0 | 0.00 | 0.00 | 0.00 | 75 | 1015.5 |
| 20260506005827 | 62 | 200 | 0.0 | 5.0 | 0.00 | 0.00 | 0.00 | 76 | 1015.5 |
| 20260506005326 | 63 | 77 | 0.0 | 2.0 | 0.00 | 0.00 | 0.00 | 76 | 1015.5 |
| 20260506004829 | 62 | 54 | 0.0 | 0.0 | 0.00 | 0.00 | 0.00 | 78 | 1015.6 |
| 20260506004336 | 62 | 130 | 0.0 | 0.0 | 0.00 | 0.00 | 0.00 | 77 | 1015.7 |
| 20260506003819 | 62 | 100 | 0.0 | 0.0 | 0.00 | 0.00 | 0.00 | 77 | 1015.7 |
| 20260506003319 | 62 | 354 | 0.0 | 0.0 | 0.00 | 0.00 | 0.00 | 78 | 1015.6 |
| 20260506002829 | 61 | 354 | 0.0 | 0.0 | 0.00 | 0.00 | 0.00 | 79 | 1015.6 |
| 20260506002329 | 61 | 355 | 0.0 | 0.0 | 0.00 | 0.00 | 0.00 | 78 | 1015.7 |
| 20260506001812 | 61 | 349 | 0.0 | 0.0 | 0.00 | 0.00 | 0.00 | 79 | 1015.8 |
| 20260506001312 | 61 | 340 | 0.0 | 0.0 | 0.00 | 0.00 | 0.00 | 79 | 1015.8 |
| 20260506000822 | 61 | 359 | 0.0 | 1.0 | 0.00 | 0.00 | 0.00 | 80 | 1015.8 |
| 20260506000323 | 61 | 332 | 0.0 | 1.0 | 0.00 | 0.00 | 0.00 | 79 | 1015.8 |
| 20260505235831 | 61 | 287 | 0.0 | 0.0 | 0.00 | 0.00 | 0.00 | 79 | 1015.8 |
| 20260505235315 | 61 | 342 | 0.0 | 1.0 | 0.00 | 0.00 | 0.00 | 80 | 1015.9 |
| 20260505234818 | 60 | 342 | 0.0 | 1.0 | 0.00 | 0.00 | 0.00 | 80 | 1016.0 |
| 20260505234325 | 60 | 55 | 0.0 | 0.0 | 0.00 | 0.00 | 0.00 | 80 | 1016.1 |
| 20260505233912 | 60 | 327 | 0.0 | 0.0 | 0.00 | 0.00 | 0.00 | 81 | 1016.1 |
| 20260505233326 | 60 | 340 | 0.0 | 1.0 | 0.00 | 0.00 | 0.00 | 80 | 1016.2 |
| 20260505232829 | 60 | 335 | 0.0 | 1.0 | 0.00 | 0.00 | 0.00 | 80 | 1016.0 |
| 20260505232336 | 60 | 326 | 0.0 | 3.0 | 0.00 | 0.00 | 0.00 | 81 | 1016.1 |
| 20260505231907 | 60 | 15 | 0.0 | 4.0 | 0.00 | 0.00 | 0.00 | 81 | 1016.1 |
| 20260505231321 | 60 | 341 | 2.0 | 4.0 | 0.00 | 0.00 | 0.00 | 80 | 1016.1 |
| 20260505230825 | 60 | 326 | 1.0 | 4.0 | 0.00 | 0.00 | 0.00 | 81 | 1016.2 |
| 20260505230312 | 60 | 339 | 0.0 | 1.0 | 0.00 | 0.00 | 0.00 | 79 | 1016.1 |
| 20260505225822 | 61 | 333 | 0.0 | 1.0 | 0.00 | 0.00 | 0.00 | 79 | 1016.1 |
| 20260505225321 | 61 | 342 | 0.0 | 0.0 | 0.00 | 0.00 | 0.00 | 79 | 1016.2 |
| 20260505224832 | 61 | 307 | 0.0 | 0.0 | 0.00 | 0.00 | 0.00 | 78 | 1016.2 |
| 20260505224312 | 60 | 307 | 0.0 | 0.0 | 0.00 | 0.00 | 0.00 | 78 | 1016.3 |
| 20260505223814 | 61 | 333 | 0.0 | 0.0 | 0.00 | 0.00 | 0.00 | 78 | 1016.3 |
| 20260505223315 | 61 | 296 | 0.0 | 0.0 | 0.00 | 0.00 | 0.00 | 77 | 1016.4 |
| 20260505222824 | 61 | 334 | 0.0 | 0.0 | 0.00 | 0.00 | 0.00 | 77 | 1016.3 |
| 20260505222324 | 61 | 318 | 0.0 | 0.0 | 0.00 | 0.00 | 0.00 | 77 | 1016.3 |
| 20260505221834 | 61 | 318 | 0.0 | 0.0 | 0.00 | 0.00 | 0.00 | 77 | 1016.4 |
| 20260505221318 | 61 | 318 | 0.0 | 0.0 | 0.00 | 0.00 | 0.00 | 77 | 1016.4 |
| 20260505220821 | 60 | 318 | 0.0 | 0.0 | 0.00 | 0.00 | 0.00 | 78 | 1016.4 |
| 20260505220328 | 61 | 318 | 0.0 | 0.0 | 0.00 | 0.00 | 0.00 | 77 | 1016.5 |
| 20260505215831 | 61 | 176 | 0.0 | 0.0 | 0.00 | 0.00 | 0.00 | 77 | 1016.5 |
| 20260505215331 | 61 | 166 | 0.0 | 0.0 | 0.00 | 0.00 | 0.00 | 77 | 1016.5 |
| 20260505214814 | 61 | 352 | 0.0 | 0.0 | 0.00 | 0.00 | 0.00 | 77 | 1016.5 |
| 20260505214320 | 61 | 352 | 0.0 | 0.0 | 0.00 | 0.00 | 0.00 | 78 | 1016.5 |
| 20260505213823 | 60 | 234 | 0.0 | 0.0 | 0.00 | 0.00 | 0.00 | 78 | 1016.5 |
| 20260505213330 | 60 | 308 | 0.0 | 0.0 | 0.00 | 0.00 | 0.00 | 79 | 1016.5 |
| 20260505212814 | 60 | 338 | 0.0 | 0.0 | 0.00 | 0.00 | 0.00 | 78 | 1016.5 |
| 20260505211823 | 61 | 339 | 0.0 | 0.0 | 0.00 | 0.00 | 0.00 | 77 | 1016.5 |
| 20260505211337 | 61 | 174 | 0.0 | 0.0 | 0.00 | 0.00 | 0.00 | 78 | 1016.6 |
| 20260505210820 | 60 | 174 | 0.0 | 0.0 | 0.00 | 0.00 | 0.00 | 78 | 1016.6 |
| 20260505210320 | 60 | 344 | 0.0 | 3.0 | 0.00 | 0.01 | 0.00 | 77 | 1016.6 |
| 20260505205830 | 60 | 146 | 0.0 | 3.0 | 0.00 | 0.01 | 0.00 | 77 | 1016.6 |
| 20260505204820 | 60 | 19 | 0.0 | 1.0 | 0.00 | 0.01 | 0.00 | 78 | 1016.6 |
| 20260505204328 | 60 | 330 | 0.0 | 0.0 | 0.00 | 0.01 | 0.00 | 78 | 1016.6 |
| 20260505203850 | 59 | 4 | 0.0 | 1.0 | 0.00 | 0.01 | 0.00 | 79 | 1016.8 |
| 20260505203336 | 59 | 337 | 0.0 | 1.0 | 0.00 | 0.01 | 0.00 | 79 | 1016.8 |
| 20260505202838 | 60 | 357 | 0.0 | 1.0 | 0.00 | 0.01 | 0.00 | 78 | 1016.8 |
| 20260505202344 | 60 | 260 | 0.0 | 0.0 | 0.00 | 0.01 | 0.00 | 79 | 1016.8 |
| 20260505201853 | 59 | 316 | 0.0 | 0.0 | 0.00 | 0.01 | 0.00 | 80 | 1016.8 |
| 20260505201355 | 59 | 316 | 0.0 | 0.0 | 0.00 | 0.01 | 0.00 | 80 | 1016.9 |
| 20260505200837 | 59 | 136 | 0.0 | 0.0 | 0.00 | 0.01 | 0.00 | 80 | 1016.9 |
| 20260505200343 | 59 | 302 | 0.0 | 1.0 | 0.00 | 0.01 | 0.00 | 80 | 1016.9 |
| 20260505195852 | 59 | 300 | 0.0 | 2.0 | 0.00 | 0.01 | 0.00 | 80 | 1016.9 |
| 20260505195329 | 59 | 295 | 0.0 | 2.0 | 0.00 | 0.01 | 0.00 | 79 | 1016.9 |
| 20260505194818 | 59 | 323 | 0.0 | 2.0 | 0.00 | 0.01 | 0.00 | 79 | 1016.9 |
| 20260505194325 | 60 | 306 | 0.0 | 0.0 | 0.00 | 0.01 | 0.00 | 79 | 1016.9 |
| 20260505193827 | 59 | 319 | 0.0 | 0.0 | 0.00 | 0.01 | 0.00 | 79 | 1016.9 |
| 20260505193313 | 59 | 322 | 0.0 | 0.0 | 0.00 | 0.01 | 0.00 | 79 | 1016.9 |
| 20260505192824 | 60 | 315 | 0.0 | 0.0 | 0.00 | 0.01 | 0.00 | 78 | 1016.9 |
| 20260505192322 | 60 | 155 | 0.0 | 1.0 | 0.00 | 0.01 | 0.00 | 78 | 1016.9 |
| 20260505191831 | 60 | 158 | 0.0 | 1.0 | 0.00 | 0.01 | 0.00 | 78 | 1016.9 |
| 20260505191337 | 60 | 312 | 0.0 | 0.0 | 0.00 | 0.01 | 0.00 | 77 | 1016.9 |
| 20260505190820 | 60 | 196 | 0.0 | 0.0 | 0.00 | 0.01 | 0.00 | 78 | 1016.9 |
| 20260505190319 | 60 | 271 | 0.0 | 2.0 | 0.00 | 0.02 | 0.00 | 78 | 1016.9 |
| 20260505185825 | 59 | 312 | 0.0 | 2.0 | 0.00 | 0.02 | 0.00 | 79 | 1016.8 |
| 20260505185325 | 59 | 56 | 0.0 | 3.0 | 0.00 | 0.02 | 0.00 | 79 | 1016.9 |
| 20260505184837 | 59 | 99 | 0.0 | 4.0 | 0.00 | 0.02 | 0.00 | 80 | 1016.9 |
| 20260505184315 | 59 | 181 | 1.0 | 4.0 | 0.00 | 0.02 | 0.00 | 80 | 1016.9 |
| 20260505183818 | 58 | 310 | 0.0 | 1.0 | 0.00 | 0.02 | 0.00 | 81 | 1016.9 |
| 20260505183318 | 58 | 338 | 0.0 | 1.0 | 0.00 | 0.02 | 0.00 | 82 | 1017.0 |
| 20260505182825 | 58 | 345 | 0.0 | 1.0 | 0.00 | 0.02 | 0.00 | 82 | 1017.0 |
| 20260505182325 | 58 | 153 | 0.0 | 2.0 | 0.00 | 0.02 | 0.00 | 82 | 1016.9 |
| 20260505181835 | 58 | 298 | 0.0 | 4.0 | 0.00 | 0.02 | 0.00 | 81 | 1016.9 |
| 20260505181315 | 58 | 250 | 0.0 | 0.0 | 0.00 | 0.02 | 0.00 | 83 | 1016.9 |
| 20260505180818 | 57 | 253 | 0.0 | 0.0 | 0.00 | 0.02 | 0.00 | 83 | 1016.8 |
| 20260505180318 | 57 | 252 | 0.0 | 0.0 | 0.00 | 0.02 | 0.00 | 83 | 1016.8 |
| 20260505175828 | 56 | 331 | 0.0 | 0.0 | 0.00 | 0.02 | 0.00 | 85 | 1016.9 |
| 20260505175328 | 56 | 308 | 0.0 | 0.0 | 0.00 | 0.02 | 0.00 | 85 | 1016.9 |
| 20260505174838 | 56 | 75 | 0.0 | 0.0 | 0.00 | 0.02 | 0.00 | 85 | 1016.9 |
| 20260505174317 | 56 | 101 | 0.0 | 0.0 | 0.00 | 0.02 | 0.00 | 87 | 1016.9 |
| 20260505173820 | 55 | 101 | 0.0 | 0.0 | 0.00 | 0.02 | 0.00 | 87 | 1016.9 |
| 20260505173320 | 55 | 89 | 0.0 | 0.0 | 0.00 | 0.02 | 0.00 | 87 | 1016.9 |
| 20260505172830 | 55 | 141 | 0.0 | 0.0 | 0.00 | 0.02 | 0.00 | 87 | 1016.8 |
| 20260505172330 | 55 | 241 | 0.0 | 0.0 | 0.00 | 0.02 | 0.00 | 88 | 1016.9 |
| 20260505171813 | 55 | 131 | 0.0 | 0.0 | 0.00 | 0.02 | 0.00 | 88 | 1016.8 |
| 20260505171320 | 55 | 131 | 0.0 | 0.0 | 0.00 | 0.02 | 0.00 | 88 | 1016.7 |
| 20260505170823 | 55 | 176 | 0.0 | 0.0 | 0.00 | 0.02 | 0.00 | 88 | 1016.7 |
| 20260505170331 | 55 | 193 | 0.0 | 0.0 | 0.00 | 0.02 | 0.00 | 88 | 1016.6 |
| 20260505165812 | 55 | 248 | 0.0 | 0.0 | 0.00 | 0.02 | 0.00 | 88 | 1016.6 |
| 20260505165313 | 55 | 156 | 0.0 | 0.0 | 0.00 | 0.02 | 0.00 | 89 | 1016.5 |
| 20260505164816 | 54 | 167 | 0.0 | 0.0 | 0.00 | 0.02 | 0.00 | 88 | 1016.5 |
| 20260505164322 | 54 | 163 | 0.0 | 0.0 | 0.00 | 0.02 | 0.00 | 88 | 1016.5 |
| 20260505163825 | 54 | 167 | 0.0 | 2.0 | 0.00 | 0.02 | 0.00 | 88 | 1016.6 |
| 20260505163332 | 54 | 178 | 0.0 | 2.0 | 0.00 | 0.02 | 0.00 | 88 | 1016.5 |
| 20260505162815 | 55 | 198 | 0.0 | 0.0 | 0.00 | 0.02 | 0.00 | 88 | 1016.6 |
| 20260505162315 | 55 | 315 | 0.0 | 0.0 | 0.00 | 0.02 | 0.00 | 87 | 1016.5 |
| 20260505161818 | 55 | 141 | 0.0 | 0.0 | 0.00 | 0.02 | 0.00 | 88 | 1016.4 |
| 20260505161325 | 54 | 141 | 0.0 | 0.0 | 0.00 | 0.02 | 0.00 | 88 | 1016.4 |
| 20260505160828 | 55 | 305 | 0.0 | 0.0 | 0.00 | 0.02 | 0.00 | 87 | 1016.3 |
| 20260505160334 | 55 | 158 | 0.0 | 0.0 | 0.00 | 0.02 | 0.00 | 88 | 1016.3 |
| 20260505153317 | 54 | 133 | 0.0 | 2.0 | 0.00 | 0.02 | 0.00 | 90 | 1016.3 |
| 20260505152827 | 53 | 204 | 0.0 | 1.0 | 0.00 | 0.02 | 0.00 | 90 | 1016.3 |
| 20260505152312 | 53 | 168 | 0.0 | 0.0 | 0.00 | 0.02 | 0.00 | 91 | 1016.3 |
| 20260505151815 | 53 | 214 | 0.0 | 0.0 | 0.00 | 0.02 | 0.00 | 91 | 1016.3 |
| 20260505151322 | 53 | 190 | 0.0 | 0.0 | 0.00 | 0.02 | 0.00 | 91 | 1016.3 |
| 20260505150812 | 53 | 220 | 0.0 | 0.0 | 0.00 | 0.02 | 0.00 | 91 | 1016.3 |
| 20260505150330 | 53 | 160 | 0.0 | 1.0 | 0.00 | 0.02 | 0.00 | 92 | 1016.2 |
| 20260505140316 | 51 | 201 | 0.0 | 1.0 | 0.00 | 0.02 | 0.00 | 93 | 1015.6 |
| 20260505124816 | 51 | 82 | 0.0 | 0.0 | 0.00 | 0.02 | 0.00 | 92 | 1015.3 |
| 20260505124322 | 51 | 82 | 0.0 | 0.0 | 0.00 | 0.02 | 0.00 | 92 | 1015.2 |
| 20260505123821 | 51 | 207 | 0.0 | 0.0 | 0.00 | 0.02 | 0.00 | 92 | 1015.2 |
| 20260505123327 | 51 | 207 | 0.0 | 0.0 | 0.00 | 0.02 | 0.00 | 92 | 1015.1 |
| 20260505122835 | 51 | 207 | 0.0 | 0.0 | 0.00 | 0.02 | 0.00 | 92 | 1015.2 |
| 20260505122314 | 51 | 124 | 0.0 | 0.0 | 0.00 | 0.02 | 0.00 | 92 | 1015.1 |
| 20260505121823 | 51 | 165 | 0.0 | 0.0 | 0.00 | 0.02 | 0.00 | 92 | 1015.1 |
| 20260505121329 | 51 | 195 | 0.0 | 0.0 | 0.00 | 0.02 | 0.00 | 92 | 1015.1 |
| 20260505120838 | 51 | 63 | 0.0 | 0.0 | 0.00 | 0.02 | 0.00 | 92 | 1015.1 |
| 20260505120316 | 51 | 63 | 0.0 | 0.0 | 0.00 | 0.02 | 0.00 | 92 | 1015.1 |
| 20260505115819 | 51 | 63 | 0.0 | 0.0 | 0.00 | 0.02 | 0.00 | 92 | 1015.1 |
| 20260505115326 | 51 | 63 | 0.0 | 0.0 | 0.00 | 0.02 | 0.00 | 92 | 1015.0 |
| 20260505114829 | 51 | 63 | 0.0 | 0.0 | 0.00 | 0.02 | 0.00 | 92 | 1015.1 |
| 20260505114336 | 51 | 63 | 0.0 | 0.0 | 0.00 | 0.02 | 0.00 | 92 | 1015.1 |
| 20260505113819 | 51 | 63 | 0.0 | 0.0 | 0.00 | 0.02 | 0.00 | 93 | 1015.1 |
| 20260505113319 | 51 | 103 | 0.0 | 0.0 | 0.00 | 0.02 | 0.00 | 92 | 1015.0 |
| 20260505112822 | 51 | 139 | 0.0 | 0.0 | 0.00 | 0.02 | 0.00 | 93 | 1015.0 |
| 20260505112329 | 51 | 144 | 0.0 | 0.0 | 0.00 | 0.02 | 0.00 | 93 | 1015.1 |
| 20260505111832 | 51 | 175 | 0.0 | 0.0 | 0.00 | 0.02 | 0.00 | 93 | 1015.1 |
| 20260505111311 | 51 | 85 | 0.0 | 0.0 | 0.00 | 0.02 | 0.00 | 93 | 1015.0 |
| 20260505110821 | 51 | 85 | 0.0 | 0.0 | 0.00 | 0.02 | 0.00 | 93 | 1014.9 |
| 20260505110321 | 51 | 85 | 0.0 | 0.0 | 0.00 | 0.02 | 0.00 | 93 | 1014.9 |
| 20260505101818 | 51 | 167 | 0.0 | 0.0 | 0.00 | 0.02 | 0.00 | 93 | 1014.5 |
| 20260505101318 | 51 | 14 | 0.0 | 0.0 | 0.00 | 0.02 | 0.00 | 93 | 1014.5 |
| 20260505100828 | 51 | 136 | 0.0 | 3.0 | 0.00 | 0.02 | 0.00 | 93 | 1014.5 |
| 20260505100328 | 51 | 165 | 0.0 | 3.0 | 0.00 | 0.02 | 0.00 | 93 | 1014.5 |
| 20260505095838 | 51 | 156 | 0.0 | 1.0 | 0.00 | 0.02 | 0.00 | 93 | 1014.5 |
| 20260505095317 | 51 | 134 | 0.0 | 4.0 | 0.00 | 0.02 | 0.00 | 93 | 1014.6 |
| 20260505094819 | 51 | 145 | 0.0 | 4.0 | 0.00 | 0.02 | 0.00 | 93 | 1014.6 |
| 20260505094319 | 50 | 160 | 0.0 | 2.0 | 0.00 | 0.02 | 0.00 | 93 | 1014.6 |
| 20260505093813 | 51 | 200 | 0.0 | 0.0 | 0.00 | 0.02 | 0.00 | 92 | 1014.6 |
| 20260505093320 | 51 | 123 | 0.0 | 0.0 | 0.00 | 0.02 | 0.00 | 92 | 1014.4 |
| 20260505092331 | 51 | 38 | 0.0 | 0.0 | 0.00 | 0.02 | 0.00 | 92 | 1014.3 |
| 20260505091814 | 51 | 148 | 0.0 | 0.0 | 0.00 | 0.02 | 0.00 | 92 | 1014.4 |
| 20260505091314 | 51 | 196 | 0.0 | 0.0 | 0.00 | 0.02 | 0.00 | 92 | 1014.2 |
| 20260505090823 | 51 | 162 | 0.0 | 0.0 | 0.00 | 0.02 | 0.00 | 92 | 1014.2 |
| 20260505090325 | 51 | 191 | 0.0 | 2.0 | 0.00 | 0.02 | 0.00 | 92 | 1014.2 |
| 20260505085827 | 51 | 178 | 0.0 | 3.0 | 0.00 | 0.02 | 0.00 | 91 | 1014.1 |
| 20260505085313 | 52 | 157 | 1.0 | 3.0 | 0.00 | 0.02 | 0.00 | 91 | 1014.1 |
| 20260505084822 | 52 | 134 | 0.0 | 4.0 | 0.00 | 0.02 | 0.00 | 91 | 1014.1 |
| 20260505083839 | 52 | 199 | 1.0 | 4.0 | 0.00 | 0.02 | 0.00 | 91 | 1014.1 |
| 20260505083318 | 52 | 141 | 1.0 | 4.0 | 0.00 | 0.02 | 0.00 | 90 | 1014.1 |
| 20260505082827 | 52 | 182 | 1.0 | 2.0 | 0.00 | 0.02 | 0.00 | 90 | 1014.1 |
| 20260505082353 | 53 | 181 | 0.0 | 2.0 | 0.00 | 0.02 | 0.00 | 90 | 1014.0 |
| 20260505081835 | 53 | 191 | 0.0 | 3.0 | 0.00 | 0.02 | 0.00 | 90 | 1014.0 |
| 20260505081341 | 53 | 153 | 0.0 | 3.0 | 0.00 | 0.02 | 0.00 | 90 | 1014.1 |
| 20260505080850 | 53 | 179 | 0.0 | 1.0 | 0.00 | 0.02 | 0.00 | 90 | 1014.0 |
| 20260505080349 | 53 | 157 | 0.0 | 0.0 | 0.00 | 0.02 | 0.00 | 90 | 1014.0 |
| 20260505075341 | 53 | 94 | 0.0 | 1.0 | 0.00 | 0.02 | 0.00 | 90 | 1013.9 |
| 20260505074850 | 53 | 146 | 0.0 | 0.0 | 0.00 | 0.02 | 0.00 | 90 | 1013.9 |
| 20260505074357 | 53 | 134 | 0.0 | 0.0 | 0.00 | 0.02 | 0.00 | 89 | 1013.8 |
| 20260505073818 | 53 | 203 | 0.0 | 4.0 | 0.00 | 0.02 | 0.00 | 89 | 1013.7 |
| 20260505073318 | 53 | 165 | 0.0 | 4.0 | 0.00 | 0.02 | 0.00 | 89 | 1013.5 |
| 20260505072821 | 54 | 210 | 0.0 | 2.0 | 0.00 | 0.02 | 0.00 | 88 | 1013.5 |
| 20260505072328 | 54 | 196 | 0.0 | 3.0 | 0.00 | 0.02 | 0.00 | 88 | 1013.4 |